Regional Weather Roundup
Issued by NWS

Home | Current Version | Previous Version | Graphics & Text | Print | Product List | Glossary Off
Versions: 1 2 3 4 5 6 7 8 9 10 11 12 13 14 15 16 17 18 19 20 21 22 23 24 25 26 27 28 29 30 31 32 33 34 35 36 37 38 39 40 41 42 43 44 45 46 47 48 49 50

000
ASUS43 KDMX 262307
RWRIA

WEATHER ROUNDUP FOR IOWA
NATIONAL WEATHER SERVICE DES MOINES IA
600 PM CDT TUE AUG 26 2014

NOTE: "FAIR" INDICATES FEW OR NO CLOUDS BELOW 12,000 FEET WITH NO
SIGNIFICANT WEATHER AND/OR OBSTRUCTIONS TO VISIBILITY.

* - THESE STATIONS ARE NOT NWS STATIONS...THUS NOT UNDER NWS
QUALITY CONTROL.  THEY ALSO DO NOT REPORT WEATHER SUCH
AS PRECIPITATION OR FOG.

IAZ001>003-012>014-020>022-031>034-043>046-270000-
   NORTHWEST IOWA

CITY           SKY/WX    TMP DP  RH WIND       PRES   REMARKS
CARROLL *      SUNNY     72  63  73 NE7       30.13S
CHEROKEE *       N/A     70  61  73 NE6       30.14F
DENISON *      MOSUNNY   73  64  73 E9        30.11S
LE MARS *      SUNNY     70  61  73 E7        30.13F
ORANGE CITY *  SUNNY     72  57  60 NE3       30.14F
SHELDON *      SUNNY     68  59  73 NE5       30.14F
SIOUX CITY       N/A     73  62  68 E8        30.11F
SPENCER          N/A     72  58  61 E3        30.15F
STORM LAKE *   SUNNY     68  63  83 E3        30.15F
$$

IAZ055>058-069>071-079>083-090>094-270000-
   SOUTHWEST IOWA

CITY           SKY/WX    TMP DP  RH WIND       PRES   REMARKS
ATLANTIC *     MOSUNNY   77  66  69 SE6       30.11R
AUDUBON *      SUNNY     77  70  78 E6        30.13S
CLARINDA *     SUNNY     81  70  69 NE6       30.09F HX  84
COUNCIL BLFS * MOSUNNY   75  70  83 E6        30.10F
CRESTON *      SUNNY     77  68  73 E7        30.11F
HARLAN  *      MOSUNNY   75  66  73 E5        30.15S
LAMONI           N/A     79  69  71 NE8       30.10F HX  81
RED OAK *      MOSUNNY   79  70  73 E7        30.09F HX  81
SHENANDOAH *   SUNNY     81  70  69 NE7       30.08F HX  84
$$

IAZ047>049-059>061-072>074-084-270000-
   CENTRAL IOWA

CITY           SKY/WX    TMP DP  RH WIND       PRES   REMARKS
AMES             N/A     77  63  61 NE5       30.12F
ANKENY *       SUNNY     75  64  69 NE6       30.11F
CHARITON *     SUNNY     79  68  69 NE6       30.11S HX  81
DES MOINES     PTSUNNY   79  63  57 E3        30.10F HX  80
GRINNELL*        N/A     75  64  69 NE6       30.12F
KNOXVILLE *    SUNNY     77  64  65 N5        30.10S
MARSHALLTOWN     N/A     77  63  61 N5        30.12F
PELLA *          N/A     81  66  61 N3        30.12S HX  83
PERRY *          N/A     75  64  69 NE3       30.12F
$$

IAZ004>006-015-016-023>025-035-036-270000-
   NORTH CENTRAL IOWA

CITY           SKY/WX    TMP DP  RH WIND       PRES   REMARKS
ALGONA *       SUNNY     70  59  68 NE7       30.16F
CLARION *      SUNNY     72  61  68 N5        30.15S
ESTHERVILLE      N/A     71  56  58 NE5       30.15F
FORT DODGE *     N/A     72  61  68 NE3       30.15F
MASON CITY       N/A     72  58  61 N6        30.16S
FOREST CITY *  SUNNY     70  57  64 N5        30.15S
IOWA FALLS *   PTSUNNY   73  61  64 CALM      30.15S
$$

IAZ007>011-017>019-026>030-037>042-050>054-066-270000-
   NORTHEAST IOWA

CITY           SKY/WX    TMP DP  RH WIND       PRES   REMARKS
CEDAR RAPIDS     N/A     79  65  62 NW5       30.11S HX  81
CHARLES CITY * MOSUNNY   73  61  64 NW5       30.15S
CLINTON *        N/A     79  66  65 N5        30.12S HX  81
DECORAH *      SUNNY     73  57  56 VRB3      30.13S
DUBUQUE          N/A     75  63  66 N5        30.12S
MONTICELLO *   SUNNY     77  66  69 VRB3      30.11S
OELWEIN *      SUNNY     73  59  60 N6        30.14S
WATERLOO         N/A     75  60  59 NE6       30.12R
$$

IAZ064-065-067-068-078-270000-
   EAST CENTRAL IOWA

CITY           SKY/WX    TMP DP  RH WIND       PRES   REMARKS
DAVENPORT        N/A     79  65  62 NE3       30.10S HX  81
IOWA CITY        N/A     81  66  60 N6        30.11S HX  83
MT. PLEASANT *   N/A     81  66  61 N5        30.09F HX  83
MUSCATINE *    SUNNY     82  66  57 N7        30.09S HX  85
QUAD CITIES      N/A     84  63  49 N6        30.08F HX  85
$$

IAZ062-063-075>077-085>089-095>099-270000-
   SOUTHEAST IOWA

CITY           SKY/WX    TMP DP  RH WIND       PRES   REMARKS
BURLINGTON       N/A     82  70  66 NE9       30.08S HX  86
FAIRFIELD *    SUNNY     81  66  61 NE7       30.10S HX  83
FORT MADISON * SUNNY     82  72  69 N10       30.08F HX  87
KEOKUK *       SUNNY     82  72  69 N8        30.06F HX  87
OSKALOOSA *      N/A     79  68  69 NE6       30.10F HX  81
CENTERVILLE *  SUNNY     77  70  78 NE7       30.11S
OTTUMWA          N/A     81  66  60 N7        30.10R HX  83
WASHINGTON *   SUNNY     81  68  65 NE6       30.10S HX  83
$$

ABBREVIATIONS USED IN REMARKS
   TC - TEMPERATURES IN CELSIUS
  WCI - WIND CHILL INDEX
   HX - HEAT INDEX
  VSB - VISIBILITY
$$




USA.gov is the U.S. government's official web portal to all federal, state and local government web resources and services.